STARLINK-1958

operational
NORAD ID: 47559 Int'l Des: 2021-009 Owner: SPXS Country: US Constellation: starlink
LEOCIRCULARSTARLINK_TYPE

Über STARLINK-1958

Beschreibung wird geladen...

Live-Position

3D-Globus wird geladen...

Nächste Überflüge

Höhenverlauf

Altitude vs Time

uPlot chart will show altitude changes over time

Zweizeiliger Elementsatz

1 47559U 21009M 25247.90827166 -.00001504 00000-0 -82128-4 0 9998
2 47559 53.0543 115.6244 0001441 97.1014 263.0139 15.06392681253079
Epoch: 4. Sept. 2025 • Age: 22 hours

Aktueller Status

Höhe 559.7 km
Geschwindigkeit 7.58 km/s
Subsatellitenpunkt -36.32°S, 154.76°E
Startdatum 4. Feb. 2021
Alter 4.5 years
Typ internet

Technische Details

Klassifizierung Payload
Masse 260.00 kg
Trockenmasse 248.00 kg
Gesamtmasse 260.00 kg
Länge 0.20 m
Durchmesser 2.80 m
Spannweite 9.00 m
Form Box + pan
Hersteller SPXS
Bus-Typ Starlink
Phasenstatus In Orbit
Besitzer/Staat SPXS/US

Große Konstellationen

Loading constellations...